RH
7 7 7 6 6 5 4 4 4 4 4 4 3 4 4 3 4 4 6 8 19 26 20 21 24 21 20 18 16 16 16 15 17 30 37 20 7 10 11 11 11 8 7 8 10 12 15 16 16 16 18 20 19 19 17 15 13 14 19 25 28 27 26 23 21 29 29 21 20 19 18 20 21 21 19 21 22 21 23 26 30 33 34 35 39 43 47 49
8 8 8 7 6 6 5 4 4 4 4 4 3 4 3 4 4 3 5 7 19 25 18 20 19 17 17 16 18 20 22 27 34 39 26 8 7 10 9 11 10 7 7 8 12 15 13 13 13 14 16 19 18 17 16 13 12 14 20 25 26 22 21 20 18 20 19 20 21 18 18 20 22 22 20 24 25 23 30 36 38 39 39 37 40 44 46 47
9 9 8 7 7 6 6 5 5 4 4 4 4 4 3 4 3 4 4 5 20 23 16 17 16 17 17 18 20 24 40 48 43 33 13 5 8 6 8 11 9 7 7 7 9 12 11 11 11 12 14 17 17 15 15 12 11 12 16 21 21 19 19 17 16 17 18 19 19 19 21 22 23 22 21 25 25 28 39 44 43 45 43 42 42 43 44 46
9 9 9 8 7 6 6 5 5 5 4 4 4 4 4 4 3 4 2 5 20 22 14 15 16 17 17 20 22 32 56 49 27 18 11 12 10 5 6 10 11 8 7 5 7 12 10 10 10 9 11 14 14 13 11 10 10 10 11 15 15 17 17 15 16 16 17 17 18 21 24 24 23 23 24 29 30 33 39 40 42 44 43 44 44 43 44 48
10 10 9 8 8 7 6 5 6 5 5 5 4 4 4 4 3 4 2 4 20 22 14 15 17 16 17 22 26 41 54 28 13 15 11 14 10 6 6 8 13 8 6 6 8 11 9 10 11 9 9 11 13 12 11 8 8 9 9 11 12 14 15 15 16 16 16 17 18 21 25 25 24 25 31 40 39 33 33 35 38 40 40 42 42 43 45 47
10 10 9 9 8 7 6 5 6 5 5 5 4 5 3 5 3 4 3 3 19 23 14 16 17 16 17 23 29 41 40 15 11 13 7 11 8 7 7 7 12 7 5 8 11 12 9 11 11 10 8 10 13 12 11 7 7 10 10 10 10 12 16 16 15 15 15 17 19 21 24 24 26 29 32 40 39 29 28 32 34 37 38 38 39 41 43 45
11 11 9 9 8 8 7 6 6 5 6 5 5 5 3 5 3 4 4 2 19 23 15 17 16 17 17 26 41 47 39 20 11 8 7 10 8 9 8 8 11 7 7 12 13 11 10 12 11 9 8 9 12 12 10 7 6 9 10 10 10 10 14 15 13 14 15 17 19 21 24 26 29 32 29 33 33 28 29 30 32 34 34 34 36 37 39 42
11 12 10 10 8 8 7 6 6 5 6 5 5 5 3 5 3 4 3 3 19 23 18 18 16 18 17 28 44 42 35 22 8 8 10 10 8 9 10 11 11 7 11 15 12 10 11 12 10 8 7 9 10 10 9 7 7 9 11 11 11 11 11 12 13 15 16 17 19 22 27 28 30 31 30 32 31 29 30 30 31 33 32 32 34 36 40 41
12 13 11 10 9 8 8 6 6 5 6 5 5 5 4 5 3 5 3 4 20 23 19 18 15 15 21 38 41 25 20 13 6 11 12 9 8 9 10 12 10 8 12 13 11 10 10 10 10 7 6 8 8 9 7 7 9 9 10 11 11 12 11 12 13 14 17 18 20 23 27 29 29 30 31 31 30 29 30 30 31 32 32 32 32 36 43 42
13 13 11 11 9 8 8 7 6 5 5 5 5 5 4 4 4 5 3 8 23 24 18 18 15 14 30 49 40 21 15 10 9 13 11 8 8 9 11 11 8 9 11 11 11 9 9 9 9 6 6 7 7 8 5 6 9 9 9 10 11 12 11 12 13 14 16 17 20 23 27 28 26 29 34 31 28 29 31 32 32 32 33 32 32 38 44 41
13 13 12 11 10 8 8 7 6 6 5 5 5 5 4 4 4 4 3 11 26 25 19 19 13 17 40 52 39 22 12 11 13 12 11 10 8 8 8 9 9 9 10 9 9 9 8 8 8 7 7 7 7 6 5 6 8 8 9 11 11 12 11 12 13 15 16 17 19 20 24 25 24 29 32 30 27 28 31 34 33 33 35 34 36 41 46 43
14 13 12 11 10 9 8 7 6 6 5 5 5 4 5 4 4 5 4 14 29 26 21 21 16 26 50 55 41 21 5 8 15 12 13 12 10 8 5 8 10 9 9 8 8 7 7 7 8 8 6 6 7 5 6 7 7 8 10 12 12 11 13 12 12 14 15 18 17 19 26 27 27 30 29 27 27 28 30 33 34 34 37 39 42 43 46 45
15 14 13 11 10 10 8 7 6 6 5 4 5 4 4 4 4 5 5 17 30 27 23 23 24 42 61 51 28 12 3 7 10 11 14 12 11 8 4 8 9 8 8 7 6 6 6 7 7 6 6 7 7 6 7 6 8 10 10 12 13 14 16 13 13 14 15 18 16 20 35 35 29 29 27 26 26 27 30 33 34 34 37 42 45 45 47 45
15 15 13 12 10 9 8 7 6 6 5 4 4 4 4 4 4 5 9 20 31 31 26 24 34 57 68 47 21 11 10 10 9 10 12 12 9 7 6 8 8 8 7 6 6 5 6 5 5 5 6 8 8 7 7 8 10 11 11 13 15 18 18 14 14 15 15 18 15 20 36 37 29 28 27 25 25 27 31 33 33 34 38 44 44 45 49 44
15 15 13 12 11 9 8 7 6 6 5 4 4 4 3 4 4 7 14 23 33 34 29 32 43 56 60 45 24 14 13 14 15 13 11 12 9 6 6 6 7 7 5 6 6 5 5 4 5 6 8 9 8 7 8 11 11 11 16 18 16 18 18 15 15 15 16 17 14 21 35 35 29 28 26 24 25 28 33 33 32 34 39 43 43 44 46 42
16 16 14 12 11 9 8 7 7 5 5 5 4 3 3 4 4 9 20 31 38 37 37 45 50 50 48 38 24 15 15 18 16 10 10 11 9 6 6 5 6 6 5 5 4 4 5 4 4 7 9 9 9 8 9 14 14 12 19 22 18 18 19 17 15 14 14 15 15 22 33 33 29 28 25 24 25 28 34 33 31 34 38 41 42 42 42 42
17 16 13 13 11 9 9 7 6 6 5 5 3 4 4 4 7 18 33 41 42 40 40 45 45 46 43 30 22 17 14 13 9 7 9 10 9 7 5 5 5 5 5 4 4 5 4 4 6 8 10 10 10 9 12 18 18 16 19 20 17 17 18 19 17 14 13 15 16 19 26 30 29 27 25 25 26 28 32 33 31 33 38 42 42 42 43 44
18 17 14 12 11 10 8 7 6 6 5 4 4 4 2 7 21 38 49 50 50 54 52 48 44 40 33 28 25 19 12 11 8 7 8 8 9 7 4 4 5 5 5 5 5 5 4 5 8 11 12 12 10 10 16 19 17 18 20 20 19 17 18 18 17 15 13 16 16 17 24 28 27 27 26 25 25 28 31 32 33 34 39 42 42 44 46 46
21 17 15 12 11 10 8 7 6 6 6 4 3 3 5 24 44 54 58 56 54 54 46 46 45 28 16 21 22 16 12 10 7 6 7 8 8 7 4 4 5 5 6 6 5 5 6 7 10 14 15 13 11 9 14 14 12 15 17 18 18 17 17 17 16 14 13 16 17 18 25 27 26 26 27 25 25 27 30 32 34 36 39 40 42 46 47 47
25 19 17 14 10 9 7 7 5 6 7 3 7 12 14 27 39 41 49 53 48 37 24 27 35 23 13 16 15 13 12 8 5 6 7 8 8 8 5 4 6 6 6 6 6 5 8 12 14 15 14 12 10 7 9 11 11 12 14 15 15 16 18 17 16 14 13 16 18 19 23 25 26 26 26 25 25 26 30 33 35 37 39 40 43 47 48 50
25 21 19 14 11 10 7 6 5 6 6 9 23 29 18 15 18 20 27 33 33 31 25 21 23 21 17 15 13 11 9 6 7 7 7 7 7 8 6 6 7 7 7 6 6 8 10 15 14 12 11 9 8 7 7 8 9 11 13 14 14 15 17 16 16 15 13 16 20 21 23 25 25 24 24 24 25 27 29 32 34 38 40 41 45 47 50 52
27 23 19 15 14 9 6 6 4 4 11 25 41 37 21 14 14 14 15 16 17 19 20 19 17 17 13 12 13 11 8 9 10 8 7 7 7 7 6 6 7 7 7 5 7 12 14 15 12 10 9 8 7 7 6 7 8 10 12 14 15 14 17 18 15 15 14 16 22 23 23 27 24 22 24 23 24 26 27 30 33 37 40 42 46 47 51 52
33 24 19 18 14 9 9 5 3 14 25 33 40 35 23 18 15 14 15 16 18 15 15 16 15 13 11 9 11 10 9 10 11 9 6 6 7 7 6 6 6 6 6 6 8 13 16 13 10 9 8 8 7 6 6 7 8 9 12 14 15 13 16 20 17 16 16 15 19 23 26 29 26 25 25 22 22 24 24 27 31 34 37 41 43 45 50 52
37 28 22 18 15 13 8 2 9 24 26 20 22 22 17 14 13 14 17 20 23 19 16 15 13 11 9 9 10 10 9 9 10 9 6 6 7 6 6 5 5 5 6 6 6 10 13 10 8 8 8 7 7 6 6 8 9 9 9 11 12 11 13 17 18 17 16 13 16 25 33 35 31 29 28 23 21 22 23 26 30 33 34 38 40 42 48 50
41 33 25 19 19 15 5 10 23 22 16 14 13 11 11 11 12 13 17 24 27 21 16 16 15 12 8 8 9 8 9 9 9 8 6 6 6 7 6 4 5 6 6 6 6 9 9 8 8 8 8 7 7 7 6 8 10 9 8 8 8 9 10 13 17 17 20 20 17 25 41 45 35 30 32 33 29 24 23 27 32 34 34 36 39 41 46 48
43 37 29 23 22 15 10 17 23 20 20 19 10 8 13 14 13 13 19 30 32 24 18 16 14 11 9 9 9 8 11 11 8 7 6 5 5 7 7 5 5 6 6 6 6 7 7 7 8 8 8 7 6 7 6 7 9 10 9 7 6 7 8 10 15 18 23 24 17 18 38 50 40 31 36 41 38 34 29 28 32 35 34 35 38 41 44 48
45 39 30 25 22 25 34 31 27 32 29 17 10 14 18 17 16 15 24 42 41 25 18 14 10 9 9 9 8 9 14 12 8 7 5 5 5 5 7 6 5 5 5 5 8 8 6 7 8 8 8 8 7 7 6 6 8 10 8 6 7 7 6 7 12 18 20 20 17 12 26 50 48 34 35 39 41 42 37 30 32 35 34 33 36 41 44 46
44 37 31 29 20 25 47 55 56 51 27 9 13 18 17 18 19 17 31 52 40 17 13 11 7 8 8 9 8 9 12 9 8 9 5 5 5 5 7 6 5 6 4 6 9 8 6 7 8 8 8 9 8 7 6 6 7 8 6 5 7 5 6 7 10 17 17 17 23 16 16 42 52 39 36 38 39 42 40 35 34 33 33 31 32 38 42 44
41 37 32 29 19 16 40 64 63 39 12 8 16 17 13 15 18 20 37 52 33 12 12 10 8 10 8 8 8 8 10 8 8 8 5 5 5 5 7 6 5 6 5 5 8 7 6 6 6 7 8 8 8 7 6 6 6 6 5 5 6 5 7 6 7 17 18 20 30 23 12 28 48 48 42 40 39 38 37 35 34 34 31 29 30 35 39 43
38 36 30 32 32 29 44 54 37 13 7 14 15 11 11 14 21 32 47 47 26 11 11 9 9 10 8 9 9 9 9 8 7 6 6 6 6 6 6 5 6 6 6 5 6 6 5 6 7 7 7 7 7 6 6 6 6 6 5 6 6 7 9 10 15 21 19 23 30 22 11 17 39 50 44 38 36 32 32 33 32 33 31 30 30 31 37 42
35 30 30 39 44 45 51 39 14 7 13 13 9 9 12 17 26 40 46 32 17 13 11 10 10 9 9 9 9 10 10 9 7 6 8 7 7 8 7 8 8 7 8 7 6 6 5 6 7 6 6 6 5 6 6 5 5 5 6 7 9 12 12 15 25 25 18 24 26 15 9 11 29 46 41 33 30 27 29 31 29 31 31 32 30 29 35 42
30 26 25 27 31 42 45 24 4 7 8 5 14 17 17 24 32 37 33 21 17 15 9 10 11 8 8 9 9 11 10 10 8 7 8 8 9 9 8 10 10 11 13 10 8 8 6 6 6 5 5 4 5 6 6 6 5 6 7 8 15 19 17 16 22 23 21 28 23 11 10 14 23 34 34 32 30 26 27 27 26 27 28 33 31 28 35 40
26 22 17 13 21 30 23 6 2 8 8 12 26 24 18 31 39 31 23 20 18 12 7 10 10 8 9 8 9 11 11 11 9 7 8 8 10 9 8 9 8 10 14 11 9 9 9 8 5 5 5 4 5 7 8 8 7 7 8 12 22 25 22 22 21 20 24 28 19 9 13 18 21 23 25 29 29 26 27 25 24 25 25 31 31 28 34 37
22 17 16 12 15 16 7 2 5 14 23 28 30 24 21 33 35 23 20 20 14 10 9 9 8 8 9 9 10 11 11 12 9 7 8 9 11 10 8 8 7 8 10 10 9 9 11 13 8 6 6 5 6 6 7 8 6 7 6 10 22 23 22 25 26 24 26 25 17 12 15 19 22 22 20 23 25 24 25 23 23 24 24 28 30 29 33 36
18 13 23 23 16 7 1 4 12 25 37 36 28 24 26 30 27 21 20 17 12 13 12 10 10 9 9 9 9 9 9 10 8 7 8 9 11 10 8 9 8 8 9 11 11 8 10 12 7 5 6 5 6 5 5 5 7 8 6 8 16 17 17 22 24 22 22 23 20 17 18 19 19 20 18 19 24 23 22 24 24 26 27 29 31 30 31 35
24 20 34 40 27 13 7 11 25 38 39 34 30 26 23 23 21 19 17 13 12 13 13 13 11 9 10 10 9 9 8 8 8 8 8 9 10 9 8 8 7 7 8 10 11 9 9 10 6 5 7 5 6 6 4 5 9 9 9 11 12 10 13 21 23 18 17 23 22 15 17 19 17 20 20 20 25 25 23 24 24 27 30 31 33 32 30 35
50 46 51 46 27 15 17 21 31 40 36 34 35 26 17 15 16 15 13 12 11 10 12 14 11 9 10 10 9 9 8 7 8 8 9 9 9 8 7 6 6 7 7 8 9 8 9 10 7 6 8 6 5 5 4 5 7 9 10 11 9 7 9 16 21 22 20 21 20 15 15 20 20 22 22 20 23 23 22 25 26 27 31 32 33 33 30 35
73 72 65 44 17 8 20 28 33 36 34 35 38 29 17 12 12 13 12 11 10 9 11 13 13 11 10 10 9 8 8 8 8 8 9 10 10 8 7 6 6 5 5 7 9 7 7 10 9 7 8 7 4 5 7 6 5 7 8 7 8 11 14 14 17 25 28 23 22 21 16 19 24 23 22 20 20 21 23 30 32 29 33 36 36 33 31 36
71 67 50 27 12 12 23 30 32 34 33 34 35 27 18 12 11 11 11 11 11 11 12 11 12 12 10 9 8 7 8 8 7 8 10 11 10 8 6 6 6 5 5 6 7 7 7 10 12 9 6 6 6 6 9 9 7 6 7 6 7 11 16 17 15 23 30 25 24 25 21 26 31 25 21 21 21 21 24 32 34 29 32 36 35 34 33 37
58 47 26 12 13 17 24 29 30 33 34 30 25 19 14 11 11 11 10 11 12 11 12 10 11 13 12 10 9 8 7 7 7 8 9 10 9 8 6 5 5 6 5 5 6 7 7 11 16 12 6 6 8 8 8 9 9 8 8 8 8 9 12 15 14 16 23 26 25 25 27 35 36 27 24 24 23 22 23 28 31 28 29 33 34 34 34 40
60 45 22 13 17 19 26 33 32 32 32 27 21 15 12 10 10 10 10 10 10 10 9 9 10 12 12 12 11 8 7 8 7 7 9 9 8 8 6 5 5 5 6 6 6 6 7 12 18 13 8 8 8 8 7 7 7 8 9 8 8 10 11 16 19 13 14 24 27 27 32 33 28 27 28 26 22 21 22 24 23 23 27 31 34 35 37 44
62 47 24 16 21 23 28 34 31 29 27 24 20 14 11 11 10 9 10 9 9 9 7 7 9 10 11 12 11 11 12 11 8 7 8 7 8 9 6 5 6 4 5 7 5 6 8 12 16 13 9 9 7 6 6 6 6 5 7 7 6 9 10 16 26 21 14 19 20 26 36 29 22 29 30 25 22 21 23 24 21 22 26 28 31 36 39 42
52 43 26 12 12 18 27 33 31 27 23 20 16 13 11 10 9 9 9 10 10 9 7 7 8 10 10 10 12 14 14 14 12 8 7 7 7 7 5 5 5 4 5 6 4 7 10 12 18 18 11 7 7 7 5 5 6 6 7 7 5 8 7 12 27 27 20 19 17 25 34 26 24 31 28 23 22 19 21 25 25 26 28 27 31 39 44 44
54 50 38 18 8 14 26 34 34 28 23 18 15 13 12 9 9 9 9 10 9 8 8 8 9 10 10 10 12 13 12 15 15 10 7 8 6 6 6 4 4 4 4 6 5 6 11 16 19 22 20 13 10 11 9 7 6 6 8 7 6 8 6 7 19 23 22 23 22 30 37 30 28 30 23 21 21 19 19 20 23 26 26 26 31 42 54 52
60 54 45 30 17 15 20 26 30 28 24 20 16 14 13 11 9 9 9 9 9 8 8 8 9 9 10 10 10 11 12 12 14 13 11 8 5 5 5 4 6 4 3 11 12 6 12 19 16 20 26 24 25 27 21 14 9 8 9 7 7 8 6 9 15 19 26 27 24 32 39 34 31 28 24 23 23 24 22 19 25 31 30 30 34 44 57 56
60 53 43 34 25 20 18 20 23 25 23 22 21 18 14 12 10 8 9 9 8 8 8 7 9 10 11 11 11 11 11 10 12 14 13 12 9 6 5 5 5 4 9 20 19 7 11 19 20 25 28 29 37 36 22 13 11 9 8 7 8 7 6 12 13 17 31 34 29 34 37 33 30 27 25 24 22 27 29 25 29 34 33 36 42 47 55 55
65 59 43 35 34 32 29 24 21 22 22 21 22 20 16 15 13 10 9 9 8 7 7 7 9 12 13 13 13 12 11 12 14 13 15 20 19 13 13 8 3 11 23 26 18 12 16 20 22 30 29 25 28 22 9 9 11 9 8 7 8 8 7 12 15 22 35 32 27 36 39 32 28 25 26 27 24 27 31 29 31 34 33 38 46 51 55 56
60 53 35 32 38 40 38 33 28 26 24 22 21 17 15 15 16 15 12 11 9 7 9 13 12 13 14 14 15 15 14 14 16 17 21 26 23 21 22 14 9 22 27 17 11 13 19 19 16 20 22 17 13 9 6 9 9 7 9 7 7 8 7 10 15 24 33 29 26 36 40 34 27 23 25 29 26 27 29 30 33 34 33 37 43 49 53 55
50 48 36 33 36 37 39 36 32 30 27 28 27 21 17 15 15 15 14 19 20 12 10 16 15 12 12 13 15 19 22 21 18 22 28 29 25 24 26 20 16 21 17 8 10 11 13 18 13 10 15 12 8 7 7 7 7 8 9 8 8 8 7 8 10 13 21 28 30 36 41 39 29 21 22 26 29 30 29 29 30 31 35 40 42 45 49 53
55 55 45 41 42 40 39 35 31 30 27 28 32 26 19 15 13 13 14 23 31 24 15 15 14 12 12 13 14 16 22 24 23 25 28 29 28 27 28 25 20 17 10 6 11 12 13 19 15 9 15 15 10 9 7 6 8 8 8 9 8 8 8 9 8 8 13 19 25 35 44 39 26 20 24 30 33 33 29 29 34 36 38 39 38 37 39 45
57 53 45 48 53 49 45 39 34 33 29 27 30 27 21 19 20 23 25 26 28 29 25 17 14 14 12 13 17 18 20 23 23 23 22 23 25 24 23 22 17 16 14 9 10 13 14 18 16 13 18 19 12 10 9 6 7 7 9 10 9 9 11 9 9 11 11 13 24 39 42 34 26 26 32 36 35 33 32 35 41 43 41 41 41 40 38 41
58 56 48 50 57 53 48 44 39 41 39 30 28 28 24 22 24 32 40 38 28 24 24 20 18 20 21 23 26 24 21 20 20 19 18 19 19 16 17 18 15 15 18 15 15 17 15 18 19 19 23 21 13 10 9 8 11 14 12 10 10 10 12 11 11 13 14 17 30 39 35 30 30 31 34 37 34 34 35 37 42 45 42 40 39 38 38 38
Wind_Speed
25 26 26 27 27 28 29 29 29 30 30 31 31 32 32 32 32 31 32 32 32 30 28 26 23 20 18 17 17 16 17 15 13 9 11 20 19 13 14 13 7 5 8 10 11 8 8 11 14 16 11 6 5 4 8 7 5 3 3 4 4 4 4 4 5 4 3 6 7 7 10 11 10 9 7 8 10 11 13 13 14 15 16 20 24 30 30 29
25 25 26 27 27 28 28 29 29 29 30 30 31 32 32 32 32 32 32 32 31 28 25 23 20 18 17 16 15 14 16 15 13 12 21 29 26 19 17 14 9 7 9 11 13 11 7 8 11 12 7 4 5 6 7 6 5 4 3 3 4 6 5 5 6 5 4 6 6 7 9 10 9 7 5 7 10 12 15 15 17 19 18 20 25 29 28 28
25 26 26 27 27 28 28 29 29 30 30 30 31 31 32 33 32 32 32 32 30 27 23 20 19 17 15 15 12 12 13 11 7 13 21 22 23 26 21 16 13 10 10 12 13 13 13 14 13 10 6 6 6 8 8 5 4 4 4 2 6 11 9 8 7 7 10 7 6 9 10 10 8 4 4 8 12 14 15 14 17 19 18 17 19 24 25 23
25 26 26 27 27 28 28 29 29 30 30 30 31 31 32 32 32 32 32 31 29 24 21 18 18 17 14 13 10 11 10 7 4 7 13 13 12 21 23 18 13 12 11 13 14 15 18 18 15 11 7 7 7 8 6 4 4 2 3 1 8 16 11 11 9 9 12 9 8 11 12 10 7 4 3 7 10 12 13 14 17 19 19 18 17 19 22 21
25 26 27 27 28 28 28 29 29 30 30 31 31 31 32 32 32 32 31 31 27 22 19 16 17 17 14 11 8 10 7 3 2 5 14 11 6 13 22 21 15 13 12 13 14 15 18 16 13 11 6 5 6 5 5 5 3 1 3 4 7 11 9 9 11 10 9 8 11 13 13 8 7 5 4 6 6 8 12 15 18 19 18 18 17 18 20 20
26 27 27 28 28 29 29 29 30 30 31 31 31 31 32 32 32 32 31 31 26 21 18 16 17 16 14 9 7 7 2 2 7 9 16 10 3 10 18 21 17 12 11 13 14 13 12 12 10 8 5 5 7 7 6 6 2 3 3 5 8 9 10 7 9 10 7 10 12 13 12 8 9 6 4 5 2 6 16 18 18 18 18 19 18 17 17 16
26 27 28 29 29 29 29 29 30 30 31 31 32 32 32 32 32 32 32 30 24 19 17 16 17 16 14 7 5 3 1 7 16 17 17 8 4 10 15 19 18 13 12 12 13 10 8 10 9 7 6 7 9 8 8 8 6 5 3 5 7 9 10 8 8 11 9 10 12 13 12 10 11 6 5 6 2 9 19 18 18 18 19 19 15 14 14 15
26 27 28 29 30 30 30 30 30 31 32 32 32 32 32 32 32 32 32 29 22 18 16 16 16 14 12 5 2 3 3 13 19 15 12 5 7 11 14 17 17 15 14 15 14 10 7 10 10 8 7 9 8 9 10 7 5 6 5 6 7 7 8 8 8 10 10 10 11 14 13 11 11 7 7 6 4 12 17 16 17 17 17 15 13 13 12 12
27 28 29 30 30 30 31 31 31 31 32 33 33 32 32 32 32 32 32 28 20 16 14 15 15 12 8 4 2 3 6 15 18 13 10 8 9 13 16 16 18 17 15 18 19 12 7 8 10 11 9 10 10 10 7 4 4 6 8 7 7 8 8 8 8 10 11 10 10 13 13 12 11 8 7 6 8 13 15 15 16 14 14 12 11 11 9 8
28 28 29 30 31 31 31 31 32 32 33 34 34 33 33 33 33 32 32 26 17 13 13 12 12 8 5 3 2 3 8 9 11 16 13 10 12 16 19 17 18 19 14 16 18 13 10 10 12 11 9 10 10 7 2 5 4 6 9 7 7 9 7 7 9 11 11 11 12 12 12 13 11 7 6 8 11 12 13 15 14 13 12 11 10 9 8 8
28 29 30 31 32 32 32 32 32 33 33 34 35 34 33 33 33 32 30 23 14 12 11 9 8 5 4 3 3 5 8 5 11 15 11 11 15 19 21 19 18 21 16 14 16 17 15 16 16 9 6 7 7 5 4 8 5 5 7 9 8 7 7 9 11 11 10 11 13 12 12 12 10 7 7 10 11 11 13 13 13 12 10 10 11 9 7 7
28 29 30 31 33 33 33 33 33 34 34 35 36 35 34 33 34 33 28 20 13 10 9 7 4 3 4 3 6 14 15 5 5 10 12 13 14 17 21 21 20 21 18 13 14 20 20 22 20 12 9 7 6 4 5 9 7 6 8 9 6 6 8 10 9 10 9 10 14 12 10 9 9 9 10 11 11 12 12 12 12 11 9 9 10 8 6 7
29 30 31 32 33 33 34 34 34 34 34 35 36 36 35 33 34 33 25 17 13 9 8 6 1 3 4 2 12 22 23 15 12 12 13 15 10 14 19 20 20 21 21 18 16 21 24 26 21 13 11 7 5 4 4 7 7 8 8 6 6 4 6 8 8 10 9 11 16 11 5 6 9 11 12 10 11 12 11 10 11 9 9 9 9 8 5 6
29 31 32 32 33 33 34 34 34 35 35 36 36 37 36 34 35 31 21 14 12 9 6 4 2 3 1 6 18 22 20 18 22 21 12 15 12 14 17 18 20 20 23 23 23 24 25 27 19 10 8 6 5 4 1 4 7 7 6 4 4 3 5 8 9 10 8 8 14 9 4 6 10 12 13 10 11 12 10 10 10 9 9 9 9 7 5 6
30 31 32 33 34 34 34 35 35 35 36 37 37 37 36 35 36 28 18 13 11 8 5 4 3 2 1 9 18 17 12 15 21 21 13 14 14 13 15 18 20 22 24 24 25 24 24 23 13 5 6 7 8 5 1 4 4 4 5 3 3 3 5 7 9 9 7 6 10 8 4 7 10 12 13 11 11 11 8 9 10 10 11 10 9 8 6 6
31 32 33 34 34 34 35 35 35 36 37 37 37 37 36 36 34 24 15 11 9 6 3 2 6 6 3 6 11 12 10 12 15 17 13 14 15 13 17 19 18 21 22 23 24 22 22 17 6 4 6 7 7 5 1 4 2 1 5 4 4 5 4 5 7 9 10 7 8 8 6 6 9 11 13 12 13 12 10 9 10 11 12 11 8 7 7 6
32 33 34 34 35 35 35 35 36 36 37 38 38 38 36 34 30 19 10 7 6 4 5 4 3 5 5 8 10 9 10 13 14 15 16 17 18 17 18 14 12 15 16 19 21 17 14 8 2 3 4 4 6 3 1 3 4 3 3 4 5 5 4 5 6 9 11 7 7 8 7 8 10 11 13 13 14 12 11 10 10 10 10 10 9 7 7 7
33 34 34 35 35 35 36 35 35 36 38 38 38 38 36 30 20 8 2 3 3 2 5 8 4 2 5 9 8 7 10 14 16 17 18 18 20 21 20 12 9 10 10 11 13 11 8 4 2 2 3 5 6 4 4 6 6 5 6 5 4 5 6 7 6 8 11 7 6 6 7 12 12 11 12 13 14 12 10 10 9 9 10 11 9 7 8 8
33 34 35 35 35 36 36 35 35 37 38 38 37 35 29 18 7 3 4 4 4 1 4 4 5 3 5 8 10 11 13 13 16 17 17 19 21 20 18 13 9 8 8 5 6 8 5 2 3 3 5 6 7 7 6 11 11 9 10 7 6 7 6 7 4 6 11 7 7 7 9 14 12 10 11 11 13 12 10 9 8 7 9 10 9 7 9 9
34 35 35 35 36 36 36 35 35 35 38 40 35 25 15 6 3 2 2 4 6 7 9 7 9 9 12 12 11 12 14 13 14 14 17 20 18 14 12 10 8 7 7 5 6 7 4 2 4 5 8 10 11 11 7 11 14 12 12 9 9 9 7 9 6 6 9 6 6 9 11 14 13 11 12 12 11 12 12 11 9 8 8 8 8 9 10 9
35 35 35 36 37 36 37 36 34 35 38 34 22 9 3 5 5 4 4 6 9 11 14 13 12 13 17 17 16 14 10 10 11 11 17 21 16 9 7 8 8 6 7 8 7 5 4 4 6 8 11 14 14 13 9 8 11 11 11 8 9 9 8 12 11 7 7 6 5 8 10 11 13 12 11 11 11 12 13 13 12 11 9 7 8 10 10 8
35 34 36 37 36 37 37 34 34 35 29 18 7 2 6 10 12 14 12 9 10 11 13 17 16 16 19 22 25 22 8 7 9 9 16 19 13 7 8 8 8 6 7 9 6 4 6 6 8 12 13 14 14 13 10 10 11 9 9 7 7 7 8 11 13 9 6 5 6 10 9 7 11 11 11 12 10 10 13 14 14 13 11 9 9 10 10 9
35 34 36 35 37 39 35 35 35 26 16 12 9 9 11 17 24 27 18 7 11 14 11 15 15 14 17 18 23 23 11 9 8 9 16 17 10 8 10 9 8 7 8 10 7 5 5 6 10 14 14 14 14 13 11 10 10 7 7 7 6 8 9 7 10 11 8 5 7 12 9 6 8 7 8 11 9 8 13 16 16 15 14 13 12 12 11 12
35 35 35 35 38 37 35 37 27 13 17 24 21 19 20 24 28 27 14 4 10 13 13 17 15 12 16 16 19 18 10 10 9 10 15 15 9 7 9 10 9 8 8 11 12 8 6 8 11 14 15 15 13 11 10 8 6 6 5 6 7 12 14 10 11 11 9 7 7 11 7 3 7 6 6 9 9 10 12 14 15 15 14 14 14 13 13 13
36 36 35 36 37 37 39 30 14 15 29 29 21 20 24 25 28 26 10 2 7 10 14 16 10 12 19 19 18 12 7 9 9 10 14 14 11 7 7 8 7 8 10 13 13 10 8 10 12 14 15 14 12 10 10 8 5 6 7 7 5 9 12 12 16 11 6 6 8 11 6 3 7 9 8 6 7 10 10 12 15 14 14 13 13 13 13 13
37 36 35 35 35 39 35 14 11 27 28 17 16 23 27 25 29 26 9 2 6 7 9 9 8 12 19 14 10 7 7 8 9 11 15 17 15 8 6 6 4 8 11 11 9 6 7 11 13 14 14 14 13 9 9 10 7 5 6 8 6 5 6 7 15 12 5 6 9 12 8 2 6 9 10 8 7 9 9 12 15 15 14 13 13 14 13 13
37 35 36 34 34 36 25 9 19 27 13 10 20 27 27 25 28 21 4 1 6 6 7 7 7 13 16 11 10 9 5 6 8 12 14 19 17 9 6 7 5 8 8 7 6 4 8 12 14 15 13 11 10 8 9 10 8 5 5 8 7 7 9 10 13 11 6 5 8 12 9 4 5 9 9 9 7 7 8 10 13 14 15 14 13 15 15 15
37 36 36 33 33 31 19 16 20 13 9 15 24 27 28 27 24 13 1 1 5 2 5 4 4 11 12 10 14 10 4 6 9 10 12 23 20 8 7 9 7 10 10 7 6 6 9 12 14 15 13 8 6 8 10 8 7 6 6 6 5 8 11 9 9 8 6 5 5 10 9 5 4 6 6 8 8 8 9 10 12 15 16 15 14 16 18 17
38 37 35 34 34 26 13 13 14 12 15 20 23 29 30 25 16 3 1 3 5 2 2 2 2 7 7 9 15 11 7 7 7 8 11 20 21 10 6 9 9 10 12 11 7 7 10 12 13 13 11 8 7 9 9 6 5 5 8 8 6 8 9 4 5 6 3 4 4 9 10 5 3 4 6 6 7 10 11 10 9 13 17 16 15 16 17 16
39 37 36 35 34 25 14 16 24 19 18 20 23 29 25 16 5 2 3 3 4 2 2 0 1 7 8 9 13 11 11 9 6 9 10 12 16 12 5 7 9 7 9 11 11 9 9 11 12 10 8 9 9 12 11 8 7 6 6 7 8 6 4 2 2 4 4 2 5 7 9 6 4 5 8 9 13 16 13 10 9 11 15 16 14 14 16 15
39 38 37 34 33 26 14 16 23 13 12 18 24 23 15 4 1 3 4 3 5 3 5 2 4 10 11 10 10 11 12 10 7 11 11 9 11 10 5 5 6 5 6 7 9 12 12 10 9 7 6 10 11 12 11 8 8 7 6 5 5 4 2 1 3 4 3 3 6 5 6 5 3 5 10 14 18 19 16 14 15 14 14 15 13 13 15 15
41 39 37 34 32 26 17 19 22 16 16 21 19 11 5 1 3 5 4 3 4 5 8 6 8 10 12 12 10 11 12 9 9 10 10 9 8 8 8 6 4 4 5 5 6 9 11 9 7 7 7 9 11 10 7 6 6 6 5 4 2 1 1 1 3 3 1 4 5 4 6 6 4 7 15 19 17 18 19 18 18 17 15 14 14 13 13 15
41 40 37 31 26 25 27 27 26 22 18 16 9 3 1 2 4 6 7 6 4 4 3 7 13 12 12 12 10 12 12 9 10 10 11 11 8 9 11 11 8 6 4 5 6 6 7 9 9 10 7 6 7 6 4 4 5 5 5 4 3 2 1 2 1 2 3 4 4 6 7 5 5 5 12 21 20 18 20 18 17 17 16 16 16 13 13 15
42 38 35 30 24 25 29 27 25 20 11 6 4 2 4 5 4 7 10 10 10 11 9 5 10 14 12 10 9 11 10 9 12 11 11 12 8 8 10 14 14 9 5 6 6 5 6 7 8 9 6 6 7 5 6 6 5 7 6 5 5 4 3 3 3 3 4 5 5 7 6 4 5 5 4 14 20 16 15 15 16 17 16 14 13 12 13 14
40 35 32 29 25 24 23 22 22 14 5 3 2 3 6 6 4 7 10 10 11 11 13 15 10 12 11 9 11 12 9 8 12 12 9 11 9 8 8 11 15 12 6 5 4 5 7 5 10 12 7 12 11 9 8 8 6 6 5 5 4 4 4 3 5 6 5 4 4 5 4 3 6 6 3 9 14 15 13 11 12 12 11 11 11 12 13 12
39 36 27 21 23 21 16 16 17 15 8 4 2 5 7 6 6 7 8 9 10 10 12 15 11 9 9 7 9 13 11 8 11 11 7 11 11 10 10 9 13 14 10 5 3 5 6 4 9 14 9 11 14 12 10 8 5 3 4 5 5 4 4 3 3 6 4 4 4 3 3 1 0 4 1 10 14 14 13 11 12 12 11 12 12 12 12 11
39 31 18 19 26 22 15 13 17 19 8 3 4 6 6 7 10 11 10 11 12 12 11 9 6 3 6 8 7 11 12 9 10 9 6 9 11 11 12 11 13 16 13 9 4 4 6 4 5 14 10 10 13 12 13 10 6 3 4 6 4 5 5 2 0 3 4 4 3 4 6 3 2 4 2 11 15 12 11 12 14 14 14 13 11 12 12 12
32 20 15 23 24 17 19 18 21 17 5 3 7 8 7 9 11 14 15 14 14 14 11 8 5 5 4 6 7 11 12 9 8 7 6 8 8 12 14 10 13 17 17 13 7 5 6 4 5 14 14 10 12 11 11 10 8 7 5 7 7 4 5 3 1 3 4 3 2 3 6 4 4 4 4 10 12 11 11 12 13 13 12 10 10 12 12 11
21 9 8 15 13 5 22 27 20 9 4 5 7 7 6 10 13 15 17 14 13 13 11 10 7 8 10 7 6 11 13 10 9 7 6 6 6 13 17 10 12 18 19 16 9 5 6 3 4 12 16 11 9 9 7 6 7 8 6 6 7 5 4 5 4 4 4 3 1 3 4 3 4 5 8 11 11 11 12 12 12 13 12 11 10 11 11 10
11 3 7 16 10 15 29 26 13 5 5 6 7 7 7 10 13 16 18 16 12 9 9 12 10 9 11 9 6 8 11 12 10 7 7 8 7 12 17 13 10 17 21 19 12 7 6 4 4 7 13 10 6 7 8 6 5 6 5 6 5 3 3 5 4 3 4 4 3 1 3 4 6 3 6 11 11 10 12 12 10 10 11 12 12 12 11 9
6 3 5 10 5 30 30 13 6 5 5 6 7 9 10 10 11 14 18 18 14 10 12 14 14 12 12 10 9 6 5 9 11 8 6 9 9 7 12 15 12 13 17 17 13 8 5 4 4 5 9 8 6 10 11 9 7 6 4 5 5 3 3 3 2 3 3 3 4 4 1 5 5 2 5 9 10 9 10 11 8 7 9 10 10 11 11 9
3 4 7 11 6 19 17 5 5 5 5 7 7 10 11 10 12 13 14 15 14 12 13 14 15 15 13 10 7 6 3 3 8 10 7 9 12 9 10 17 17 14 13 10 11 11 7 4 4 5 8 8 8 14 16 13 10 8 5 4 3 2 2 3 3 4 2 2 4 5 3 3 5 3 7 7 9 10 9 9 7 6 9 10 9 10 11 10
2 8 18 21 15 7 6 4 5 5 6 8 10 13 13 11 12 12 13 14 12 12 11 11 12 13 11 9 8 7 6 5 5 9 9 10 13 14 15 19 20 16 12 8 9 11 8 4 3 2 5 8 9 11 17 17 12 8 6 6 6 6 5 4 4 5 4 3 4 3 4 2 5 2 7 8 9 10 8 8 8 7 8 9 9 9 10 10
4 7 13 19 16 9 6 5 5 5 7 10 12 14 14 12 13 13 13 13 11 10 11 9 11 12 10 8 9 8 6 4 6 8 8 8 10 16 19 20 20 16 10 7 8 8 6 5 5 1 1 6 8 6 9 13 10 6 4 5 7 11 11 7 2 2 2 5 6 5 3 3 5 1 8 9 8 9 7 7 9 8 7 7 8 8 8 9
6 4 5 11 13 8 5 5 6 6 7 10 13 14 14 12 12 14 16 15 14 13 11 10 10 10 8 8 8 8 7 5 6 7 7 8 8 14 19 21 20 15 12 14 13 8 6 5 5 4 3 6 7 5 5 7 6 4 5 6 7 8 10 8 3 2 2 6 5 6 5 5 6 4 7 8 8 8 7 7 7 7 7 7 7 7 8 8
5 3 3 5 6 4 4 7 9 8 8 9 9 11 14 13 11 14 16 15 16 17 14 12 11 9 9 10 10 10 9 8 7 7 6 5 4 6 11 17 20 17 16 20 18 8 4 5 6 7 7 7 7 6 6 8 6 6 8 9 11 10 7 6 5 4 4 5 5 6 10 8 7 6 7 8 9 8 8 8 7 6 7 7 8 8 8 8
2 3 4 6 5 5 4 6 7 7 9 10 7 8 14 15 11 11 13 12 14 17 14 11 9 8 10 11 10 9 10 7 6 7 7 5 6 9 8 10 16 19 14 13 14 7 3 5 7 9 9 9 7 5 4 6 8 8 11 13 14 15 12 5 5 6 6 6 5 8 14 14 11 11 11 10 9 8 8 9 8 8 8 7 7 8 9 8
3 3 5 7 4 4 5 7 10 12 13 12 8 10 15 17 13 11 8 8 13 14 9 5 8 11 13 13 11 9 10 8 5 5 6 5 7 9 12 15 8 16 15 7 9 7 3 4 8 9 9 9 8 7 6 6 8 8 8 13 16 16 14 10 6 5 8 7 6 10 16 16 13 13 12 11 11 9 8 8 7 7 8 7 8 8 9 8
4 3 5 7 5 6 8 12 15 15 15 13 9 10 14 16 16 14 6 4 10 9 4 4 10 13 14 14 11 8 7 6 4 3 2 6 7 6 6 12 7 9 15 10 6 4 3 2 4 5 4 4 6 9 9 6 6 6 6 7 9 11 11 10 9 7 7 7 7 12 16 13 12 14 13 11 10 10 9 8 8 7 7 8 8 9 9 9
5 4 5 5 6 8 8 10 12 12 10 10 9 10 13 15 16 15 7 1 4 9 8 9 14 15 14 16 13 8 4 6 6 3 2 5 4 4 3 5 7 4 9 9 4 2 2 3 3 3 2 2 5 9 12 10 6 7 9 10 8 9 8 8 9 8 8 8 6 12 13 8 7 11 10 8 8 9 9 8 8 8 8 8 7 7 7 7
9 9 9 6 6 7 7 8 9 9 7 7 8 9 11 13 11 7 4 1 1 7 11 13 16 13 12 15 12 7 10 11 11 9 6 4 2 2 2 5 9 10 8 4 3 4 4 2 1 4 2 2 4 8 12 12 9 10 12 11 10 8 7 6 6 6 8 9 7 10 9 6 5 7 7 7 9 10 9 8 7 6 6 7 6 5 3 3
13 11 9 6 6 6 7 7 8 7 6 7 12 14 14 15 9 7 4 3 6 9 10 12 13 8 5 8 7 6 11 11 10 9 6 4 5 4 4 9 13 10 6 3 2 4 6 3 2 4 2 2 4 8 8 6 8 10 9 7 7 6 4 5 5 4 4 6 6 7 6 6 6 8 8 7 8 9 8 7 7 7 7 7 6 5 3 1
Wind_Direction
1 1 1 360 358 357 355 353 353 352 352 351 350 349 348 347 346 345 344 341 340 339 339 340 339 339 340 339 334 327 323 318 309 288 244 254 259 245 243 252 267 245 228 229 238 256 269 259 245 246 254 251 237 231 241 236 217 200 153 148 154 196 211 155 152 200 181 124 128 133 126 118 116 126 135 137 127 113 107 107 113 111 109 115 121 124 127 131
360 360 359 359 358 356 355 353 352 351 351 350 350 349 348 347 346 346 344 342 341 338 340 341 339 341 343 343 338 334 333 321 306 276 261 265 260 245 235 232 240 224 215 223 232 236 242 253 241 233 232 231 235 227 229 220 201 199 178 163 147 177 184 153 173 180 130 122 135 127 117 114 112 122 137 128 115 105 99 98 103 104 108 115 120 126 134 137
358 358 358 357 357 356 355 352 351 350 350 350 349 348 347 347 345 345 344 342 341 338 339 339 338 340 343 347 343 344 339 325 300 263 277 282 255 242 231 224 228 216 215 226 231 233 241 257 255 241 220 227 238 224 222 198 203 211 166 158 145 159 164 165 169 125 132 154 136 108 89 89 84 79 111 113 108 103 105 110 112 116 124 124 123 129 136 135
357 357 356 356 355 354 353 351 350 349 348 348 347 347 346 346 345 344 344 342 340 339 338 338 338 334 340 350 346 351 343 313 267 254 303 309 249 229 217 215 217 211 222 233 238 246 258 271 272 262 233 234 243 233 228 174 196 207 118 68 143 154 153 151 148 129 148 162 134 109 88 89 86 76 83 102 112 111 118 129 128 131 133 131 134 135 137 136
355 355 354 354 353 353 352 350 349 347 347 347 346 345 344 345 344 343 344 342 339 338 335 335 334 328 334 347 348 353 354 317 325 9 351 329 239 209 205 207 209 210 220 231 247 259 266 273 273 269 251 246 254 255 247 195 187 110 114 56 108 138 120 126 143 145 155 134 115 103 96 103 92 80 64 85 117 127 130 132 131 134 135 138 143 142 142 143
354 353 353 352 351 351 349 349 347 346 345 345 345 344 343 343 343 342 342 340 338 335 332 332 330 325 323 337 9 2 15 303 308 329 341 341 191 195 197 198 203 208 216 229 248 260 262 261 262 267 263 255 246 244 239 209 154 98 123 79 85 106 106 134 148 131 125 112 110 106 109 116 100 94 99 101 84 110 122 127 130 132 135 141 144 145 149 149
353 352 351 350 350 349 348 347 345 344 343 342 343 342 341 341 341 341 340 339 336 331 330 329 329 323 314 330 11 352 185 267 280 286 301 317 162 193 194 196 202 204 211 225 240 245 252 256 256 254 253 253 239 235 233 209 157 122 92 81 106 117 123 146 136 116 116 117 118 115 114 110 105 109 121 118 23 100 116 123 128 132 138 143 148 153 154 154
352 351 350 349 348 347 347 345 344 342 341 340 340 341 340 339 340 339 339 338 332 329 329 327 330 322 315 339 336 304 224 251 268 279 279 250 165 184 190 194 202 202 206 223 235 234 240 255 254 250 254 253 246 249 235 202 138 120 97 78 98 107 112 118 113 111 109 104 105 110 114 111 112 119 117 116 90 103 114 122 127 132 140 147 155 157 154 161
351 350 348 347 347 346 345 343 342 340 339 338 337 339 338 336 338 338 338 336 327 326 325 326 333 321 315 343 306 287 261 256 260 255 233 199 172 181 187 191 200 199 205 227 237 239 240 249 246 241 246 253 261 260 227 145 95 114 115 110 120 118 113 114 114 110 102 97 101 106 112 121 131 134 121 120 108 107 116 123 127 135 143 151 155 145 144 163
349 348 347 346 345 344 343 342 340 338 337 335 334 336 336 335 336 336 337 334 325 323 322 331 337 320 321 319 262 259 264 254 228 218 208 196 180 178 186 190 196 196 204 230 235 237 236 243 250 248 246 257 267 258 181 102 93 103 119 130 130 127 127 125 114 108 106 108 111 108 113 128 141 135 119 123 116 117 125 127 134 140 145 153 144 132 146 168
348 347 346 345 344 343 341 340 338 337 334 333 332 332 333 333 333 334 336 331 319 316 316 330 340 324 323 303 260 243 243 186 176 193 188 193 186 182 188 186 193 196 203 230 234 235 238 247 258 265 258 263 270 257 107 111 118 106 125 117 116 135 127 115 109 112 114 113 118 123 132 134 127 118 121 126 124 128 131 134 143 142 147 152 136 136 163 177
347 346 345 343 342 341 339 338 337 336 333 330 329 328 331 332 331 332 332 327 311 306 309 316 352 1 329 293 239 240 244 227 190 202 182 185 192 195 192 184 193 198 203 227 239 238 241 250 256 261 268 285 288 265 123 134 140 132 130 112 137 164 124 121 121 127 129 125 134 140 141 129 118 126 129 131 136 137 136 144 147 141 145 138 127 143 179 180
346 345 343 342 341 340 338 337 335 334 332 329 326 326 328 329 329 328 328 323 303 295 299 291 91 48 5 269 247 259 267 268 277 266 199 178 189 200 193 187 196 202 209 228 242 240 239 245 251 259 274 294 294 259 162 148 130 131 132 121 161 163 136 141 125 132 135 134 149 151 127 116 124 133 135 143 145 140 144 149 146 145 142 127 128 153 188 175
344 343 342 341 340 338 337 336 334 333 330 327 324 323 325 327 326 324 323 316 296 285 282 266 147 80 74 255 272 282 281 268 275 274 212 169 177 190 192 198 209 213 216 231 243 246 246 248 254 267 278 287 286 282 216 126 113 126 124 117 152 154 162 147 129 148 150 150 160 150 108 135 139 138 144 152 144 142 150 148 149 148 135 127 136 160 187 169
343 341 341 340 339 338 335 335 333 332 330 327 323 321 322 324 322 319 318 305 286 273 268 266 217 181 289 271 284 290 268 256 265 260 219 179 181 181 192 209 222 224 221 230 242 252 258 257 259 273 280 289 284 274 268 102 112 125 118 137 174 168 175 145 143 155 140 165 171 140 116 145 142 147 153 153 144 144 148 150 154 148 136 136 147 167 177 163
341 340 340 338 338 336 334 334 332 331 329 326 322 319 320 323 319 314 310 290 270 248 218 259 203 192 284 272 288 292 241 230 242 240 226 207 198 184 191 206 224 230 225 229 240 252 260 259 248 255 276 292 284 259 134 91 119 143 121 154 185 176 183 152 150 146 142 178 174 137 133 148 146 154 156 152 148 146 154 167 161 149 143 141 153 173 164 159
340 339 338 337 336 335 334 333 332 331 328 325 322 319 319 320 315 310 303 271 252 221 203 273 230 180 256 273 297 292 219 203 211 225 228 214 206 192 185 199 223 226 226 231 238 247 259 261 214 249 274 276 275 252 176 123 162 196 144 162 189 186 173 155 160 154 158 181 170 144 135 143 149 156 158 154 152 153 163 171 164 154 145 143 159 173 156 157
339 338 337 336 335 334 332 331 332 331 327 324 322 320 320 319 317 320 5 132 142 183 238 278 288 187 248 255 259 245 217 200 196 221 226 206 207 198 181 192 217 214 218 229 239 241 247 242 177 247 272 261 264 240 178 161 178 176 160 177 190 188 179 165 171 167 168 168 158 155 133 138 149 156 162 157 154 159 165 162 160 153 142 148 163 165 154 159
339 337 336 335 334 332 331 330 331 331 328 323 321 323 322 320 336 74 121 128 131 194 277 244 196 214 274 253 233 231 237 205 186 217 213 190 207 204 183 195 211 210 212 208 222 227 228 198 173 236 255 249 250 244 185 164 184 168 158 188 186 181 188 168 176 180 170 159 157 163 138 140 155 162 162 163 159 160 161 154 153 151 146 156 164 157 156 161
339 337 336 335 333 331 330 329 329 331 329 324 323 329 330 325 4 57 162 201 211 237 261 233 191 226 268 277 267 242 230 198 182 210 197 183 204 205 181 193 206 210 214 203 205 211 212 199 205 218 237 247 249 250 223 179 189 174 163 192 186 179 182 163 183 201 167 160 174 161 142 147 159 165 165 169 168 158 156 155 155 157 153 158 160 153 157 160
338 337 336 335 333 331 329 328 328 329 327 322 322 331 308 294 299 296 288 252 231 232 250 249 224 231 250 263 269 255 223 186 187 200 187 186 199 198 173 185 202 208 210 214 212 199 200 219 221 220 231 242 249 254 247 218 209 185 171 192 190 185 178 165 180 206 174 166 173 142 137 153 158 163 169 170 171 163 158 159 160 160 158 161 159 155 157 156
338 337 336 335 334 331 328 328 328 327 328 329 326 249 254 283 288 284 289 287 270 260 258 258 249 246 252 256 261 260 236 176 200 197 180 185 196 187 164 179 207 205 204 218 218 185 203 226 219 222 232 236 246 253 244 241 238 207 176 190 204 176 159 165 175 186 183 171 162 143 140 152 155 162 170 172 178 168 163 163 161 160 163 168 163 156 160 159
338 337 336 335 334 331 328 327 327 328 338 336 299 262 270 295 302 293 283 290 292 282 269 261 255 251 251 253 257 254 225 176 198 196 180 182 196 190 169 181 208 205 201 215 221 192 194 225 218 220 230 232 239 243 237 241 245 232 182 183 210 173 156 167 168 172 186 187 157 146 143 144 151 166 175 176 181 166 164 167 161 163 168 172 169 163 165 167
338 337 336 335 334 332 329 328 328 332 338 325 293 274 289 306 316 308 288 279 290 279 265 255 252 248 243 244 249 245 207 173 193 192 182 184 196 196 181 184 200 211 206 208 224 227 202 208 219 225 231 232 235 230 231 247 257 270 234 199 197 177 169 162 159 170 181 183 158 134 127 157 161 175 192 183 179 167 165 164 161 165 168 169 170 167 166 168
338 337 336 336 335 332 330 329 331 334 331 321 296 297 316 324 333 332 321 279 278 273 263 245 233 243 240 240 245 233 174 178 199 187 180 190 202 195 187 189 193 212 209 205 219 233 215 203 213 228 232 235 241 224 213 228 257 282 255 236 219 180 177 160 156 164 167 183 173 136 123 235 187 179 194 188 176 176 172 162 161 165 168 169 170 170 167 167
337 337 335 336 335 333 335 336 330 331 326 311 309 327 333 331 335 337 334 259 271 267 247 203 167 214 224 227 229 186 165 195 205 194 179 187 209 213 194 190 183 209 210 204 214 232 218 207 210 227 232 229 239 239 212 205 221 264 233 228 257 236 230 186 160 161 171 195 189 160 147 207 196 191 193 178 171 185 180 165 163 165 172 174 170 170 169 167
335 335 335 335 334 338 339 311 318 327 313 303 327 334 332 330 332 334 346 213 267 237 203 170 147 184 192 195 193 176 179 177 185 210 184 175 202 230 212 193 176 210 218 203 206 216 216 211 207 223 235 227 227 235 226 204 201 253 224 197 224 243 251 229 183 176 181 180 194 185 155 117 194 210 193 165 159 186 186 173 169 168 175 177 171 171 171 171
333 332 334 332 330 334 323 293 309 313 282 314 330 333 333 330 327 329 36 251 277 237 170 167 158 176 176 179 187 192 211 164 172 216 185 169 189 219 220 211 196 205 221 223 206 192 214 224 210 211 227 235 228 227 229 206 189 244 252 215 212 225 248 245 186 179 179 159 201 200 160 120 211 211 174 156 163 189 201 196 182 172 175 177 172 170 171 172
331 331 332 329 325 329 325 294 283 273 295 319 330 331 329 322 317 316 149 270 279 311 153 173 139 169 180 180 186 194 205 192 185 196 170 168 189 212 227 229 224 209 217 233 235 198 206 227 222 211 211 221 242 246 239 203 176 232 254 264 267 231 246 274 156 153 146 153 215 207 174 161 219 193 165 164 182 197 202 205 194 177 177 178 174 170 169 169
329 328 329 329 322 322 333 293 273 282 309 317 323 324 318 312 309 192 234 251 275 295 146 106 96 167 191 188 184 188 197 211 202 180 170 166 190 210 238 245 241 230 218 224 240 239 220 217 224 225 200 192 224 247 243 215 192 209 228 251 268 252 260 310 141 114 91 164 239 223 195 182 184 191 181 183 197 198 192 194 200 187 180 180 176 168 166 166
327 324 325 323 312 310 319 283 277 299 315 309 321 322 311 297 165 221 232 241 292 260 164 172 158 166 190 196 183 181 195 220 210 181 178 165 182 202 223 240 235 243 239 218 227 246 244 221 213 234 211 185 205 233 233 209 198 205 212 228 251 268 276 339 6 43 90 235 248 251 256 235 207 205 202 203 202 192 183 188 196 193 183 180 177 169 165 167
325 322 319 314 304 294 272 262 279 295 296 307 320 319 305 232 209 233 237 273 279 197 175 185 175 175 192 194 190 180 188 222 224 197 183 170 181 196 204 216 203 209 235 223 213 231 247 239 203 216 229 197 198 220 215 195 210 219 220 223 211 276 251 195 350 349 200 235 235 243 272 257 232 205 199 206 205 191 187 189 190 190 183 177 178 171 163 166
324 320 314 308 302 284 268 271 283 287 297 313 314 277 258 250 223 220 231 255 260 222 189 172 175 185 191 188 189 184 185 211 223 211 185 174 183 193 204 219 215 206 210 216 212 204 235 251 217 203 216 208 198 196 182 189 217 222 210 191 162 132 124 172 224 263 256 265 251 246 258 257 265 245 197 198 203 194 188 186 183 187 186 179 178 169 159 167
323 319 315 309 299 281 273 276 277 278 293 304 283 236 226 237 235 238 237 238 253 270 285 252 189 181 190 194 188 187 191 206 217 212 181 173 188 193 200 216 222 223 214 215 221 202 211 237 228 215 188 179 204 204 178 180 202 220 203 166 163 154 145 171 173 182 231 256 254 243 239 218 234 259 181 184 196 191 180 180 181 187 186 175 171 165 157 166
322 320 317 307 293 280 271 265 261 256 242 221 247 216 218 230 232 244 249 244 254 268 276 277 242 186 188 196 191 196 199 203 217 217 183 170 186 196 192 208 221 224 214 211 223 218 221 226 219 220 184 164 195 226 202 187 208 216 172 152 184 185 164 185 196 184 198 235 243 231 224 196 207 226 114 135 173 179 170 170 174 178 173 157 162 171 166 167
324 325 319 296 282 278 268 255 234 209 194 200 218 219 221 232 230 233 249 251 256 263 268 274 257 200 182 182 198 204 197 199 214 216 194 172 180 196 196 199 214 222 220 209 208 202 219 256 202 193 192 179 189 218 217 203 222 207 140 164 208 220 179 155 207 208 202 230 237 231 260 307 189 262 191 118 140 160 157 159 171 170 162 159 168 177 173 165
326 325 309 277 273 265 249 231 197 184 188 197 207 230 227 227 239 246 258 264 268 276 285 291 290 246 182 176 199 202 189 190 202 207 200 179 179 193 199 200 206 220 230 220 233 215 196 257 191 169 194 207 186 210 232 222 213 183 162 180 194 255 240 138 24 243 207 223 230 218 235 217 154 257 231 125 132 145 144 154 172 169 160 162 169 176 178 169
319 311 282 275 278 255 221 198 172 170 180 206 222 243 240 233 240 245 256 271 280 286 291 288 298 312 253 196 188 194 186 179 191 205 203 183 178 186 194 206 199 210 232 225 226 251 206 232 213 175 189 199 176 198 236 234 208 179 176 176 165 220 239 170 198 225 187 210 266 250 243 221 192 211 167 135 139 136 126 136 154 154 149 152 162 173 176 167
309 295 274 284 299 220 185 176 161 164 190 198 223 234 234 244 245 249 261 276 288 291 286 279 287 288 269 242 194 190 182 179 192 204 202 187 179 185 189 203 196 197 224 230 219 246 232 239 237 188 182 178 168 188 220 238 215 188 186 187 176 192 195 176 193 186 156 165 237 288 293 288 256 216 162 150 144 131 123 127 142 150 152 154 158 170 175 167
307 276 272 291 292 156 159 163 160 179 204 207 230 232 235 247 246 252 262 270 280 284 279 284 290 279 276 284 267 220 184 183 196 199 196 182 177 188 187 195 201 194 210 225 223 228 228 224 248 197 178 174 173 188 197 203 202 195 196 193 194 212 186 178 209 191 147 147 168 254 301 288 284 272 141 137 132 128 123 124 139 154 162 166 163 168 176 170
308 273 281 326 102 143 147 160 190 192 217 230 236 239 244 250 251 253 256 259 262 258 261 272 275 274 278 281 275 257 195 188 198 198 191 179 182 198 190 192 204 198 203 219 222 221 220 201 209 190 181 189 185 178 189 204 204 197 199 190 191 209 167 152 233 225 157 144 166 164 194 276 291 21 100 119 121 122 118 121 138 150 155 166 167 169 174 167
287 261 277 340 56 146 149 171 213 199 230 236 236 245 248 252 257 259 259 263 265 258 251 252 256 262 265 268 287 315 317 247 212 201 191 184 189 197 195 194 200 204 205 212 213 218 228 210 192 192 190 194 188 178 184 205 216 206 205 198 192 225 189 150 188 224 219 184 175 143 118 270 291 53 87 101 113 118 118 124 139 146 146 152 159 168 176 174
266 286 285 300 303 240 195 202 215 216 232 240 246 249 250 251 253 256 259 261 263 262 253 246 254 260 260 267 284 296 297 297 266 228 209 197 191 191 195 194 196 206 210 203 201 211 224 214 178 207 199 187 198 191 183 193 208 211 209 195 192 222 230 196 172 180 202 199 173 117 104 228 285 22 101 110 120 123 121 120 119 119 132 140 140 151 171 185
286 289 288 296 298 278 242 234 232 227 235 243 245 247 250 252 252 252 256 256 256 261 260 253 255 254 247 247 255 271 277 274 293 276 238 221 198 189 196 197 196 203 204 185 182 195 214 201 156 142 189 177 198 214 189 191 198 204 221 207 196 204 209 225 241 128 192 207 163 125 131 218 258 188 120 113 111 114 122 131 125 126 142 143 133 136 152 174
297 262 261 289 291 277 241 242 251 253 257 254 248 249 248 248 249 248 252 258 259 263 265 261 264 268 266 262 261 273 277 263 290 303 276 254 217 190 196 200 195 202 204 187 177 177 194 198 171 161 166 172 192 214 196 185 184 190 228 245 240 216 200 206 211 109 207 229 185 135 149 214 236 184 139 130 123 121 133 144 136 136 150 150 145 148 147 157
319 286 282 300 299 293 255 251 252 254 265 269 266 262 253 248 246 242 245 253 256 260 265 262 272 292 293 281 272 264 263 258 256 278 301 300 271 224 213 204 193 197 208 195 184 173 162 183 179 162 168 181 192 205 181 160 164 180 198 230 257 257 233 187 165 185 192 194 211 177 153 167 207 193 168 162 155 150 155 154 141 131 139 150 156 159 156 161
296 294 333 343 325 319 309 278 260 258 268 269 268 276 270 264 258 243 237 242 248 251 255 258 263 281 285 283 283 274 270 266 252 278 320 345 328 328 314 254 207 188 190 194 190 183 127 167 178 160 171 191 197 232 222 172 188 194 185 203 230 246 251 222 178 197 166 144 223 207 158 157 191 195 180 178 172 167 166 161 154 150 151 157 159 160 164 168
298 303 352 360 330 309 328 314 297 294 293 284 265 261 267 266 267 260 246 264 267 247 235 267 269 265 271 278 287 286 276 271 266 295 341 7 345 348 341 315 262 175 167 177 188 180 111 154 183 168 180 203 212 239 247 208 214 224 203 200 208 222 238 233 204 175 147 153 214 202 170 168 185 189 180 180 178 168 157 144 141 151 153 148 149 158 168 172
338 317 344 359 327 293 295 294 292 293 297 299 287 265 262 259 260 262 259 311 299 270 225 249 261 261 264 266 274 279 268 271 269 254 25 25 1 7 351 324 318 170 180 188 173 160 114 158 190 156 164 224 243 252 256 245 237 258 277 254 218 217 229 231 232 218 188 190 188 179 183 185 183 185 185 183 172 154 145 137 137 149 149 141 143 152 166 179
357 325 332 334 303 290 289 292 298 299 298 302 295 275 265 258 256 261 256 87 324 301 291 266 256 258 263 262 268 286 321 346 341 323 47 50 22 16 356 305 320 297 226 200 143 105 167 204 210 115 73 319 281 257 248 248 263 274 275 271 256 243 240 237 241 235 225 229 188 169 186 204 194 183 174 159 141 131 132 138 143 148 142 137 139 145 159 175
333 322 332 321 295 306 310 308 309 303 299 302 299 293 281 272 275 287 293 79 339 294 297 285 265 254 261 269 277 323 2 360 352 348 4 28 18 351 328 295 308 314 281 227 126 126 166 205 156 105 85 311 296 269 239 222 236 256 252 248 250 250 250 253 248 232 226 226 192 160 176 208 199 161 136 125 127 126 130 134 129 122 117 120 124 124 133 153
330 328 334 317 294 308 311 311 310 302 308 324 327 325 299 281 307 348 328 336 330 299 299 309 300 281 288 302 302 344 360 352 342 340 343 338 320 314 317 305 300 302 305 327 35 132 149 142 105 105 112 253 286 291 273 228 216 235 241 250 269 281 315 335 320 310 289 244 188 158 169 178 147 122 117 119 114 109 116 123 116 108 106 109 115 123 145 214